Other Public Products
Issued by NWS Grand Forks, ND

Home | Current Version | Previous Version | Text Only | Print | Product List | Glossary Off
Versions: 1 2 3 4 5 6 7 8 9 10 11 12 13 14 15 16 17 18 19 20 21 22 23 24 25 26 27 28 29 30 31 32 33 34 35 36 37 38 39 40 41 42 43 44 45 46 47 48 49 50

253
FPUS83 KFGF 042231
OPUFGF
PRAIRIE TO PINES WEATHER ROUNDUP
NATIONAL WEATHER SERVICE EASTERN NORTH DAKOTA/GRAND FORKS ND
500 PM CDT WED MAY 04 2016

 **SATELLITE DATA USED TO AUGMENT SKY COVER AT AUTOMATED STATIONS**
 *****  WEATHER ACROSS EASTERN NORTH DAKOTA  *****

CITY           SKY/WX    TMP DP  RH WIND       PRES   REMARKS
GRAND FORKS    MOSUNNY   71  30  21 W6        29.98F
GRAND FORKS AF SUNNY     70  25  18 NE6       29.99F
GRAND CITY NWS NOT AVBL
BUXTON           N/A     71  31  22 NE7         N/A
DEVILS LAKE    MOSUNNY   70  35  27 SE9       29.98F
FARGO          SUNNY     71  29  21 NW7       29.98F
WAHPETON ARPT  CLEAR     68  23  18 N8G16     30.00S
$$

 *****  WEATHER ACROSS CENTRAL AND WESTERN NORTH DAKOTA  *****

CITY           SKY/WX    TMP DP  RH WIND       PRES   REMARKS
JAMESTOWN      SUNNY     71  32  23 SW3       29.99F
BISMARCK       SUNNY     79  41  25 SW5       29.99F
MINOT          SUNNY     88  37  16 S13       29.91F
MINOT AFB      MOSUNNY   84  39  20 W14       29.88F
GARRISON         N/A     82  42  24 SW9       29.95F
WILLISTON      MOSUNNY   85  37  18 S16G25    29.91F
DICKINSON      SUNNY     79  36  21 SW9       29.96F
HETTINGER      SUNNY     77  41  27 S12       30.02F
$$

 *****  OTHER OBSERVATIONS NORTHEAST NORTH DAKOTA  *****

CITY           SKY/WX    TMP DP  RH WIND       PRES   REMARKS
WALHALLA       FAIR      73  36  25 SW6       29.94F
LANGDON        FAIR      73  34  23 SW12G21   29.96F
CAVALIER       FAIR      72  34  25 S7        29.95F
GRAFTON        FAIR      70  30  23 VRB5      29.99S
CANDO          FAIR      77  34  20 S14       29.97F
FORT TOTTEN      N/A     75  36  24 SW3       29.95
ROLLA          FAIR      75  36  23 SW15      29.95F
RUGBY          FAIR      79  39  24 S9        29.93F
 ***** THE ABOVE OBSERVATIONS ARE NON NWS ARE NOT QUALITY
        CONTROLLED AND MAY MIS-REPORT RAIN FOR SNOW...
$$

 *****  OTHER OBSERVATIONS SOUTHEAST NORTH DAKOTA *****

CITY           SKY/WX    TMP DP  RH WIND       PRES   REMARKS
COOPERSTOWN    NOT AVBL
VALLEY CITY    FAIR      70  27  19 N5        30.02F
OAKES            N/A    N/A N/A N/A MISG        N/A
GWINNER        FAIR      72  30  21 W8        30.01F
SHEYENNE NWR     N/A     71  30  22 N5        29.95S
BUFFALO          N/A     71  25  18 W6          N/A
WYNDMERE         N/A     72  30  21 N12         N/A
 ***** THE ABOVE OBSERVATIONS ARE NON NWS ARE NOT QUALITY
       CONTROLLED AND MAY MIS-REPORT RAIN FOR SNOW...
$$

  *****  WEATHER ACROSS NORTHERN MINNESOTA  *****

CITY           SKY/WX    TMP DP  RH WIND       PRES   REMARKS
FLAG ISLAND    SUNNY     52  37  58 S8        29.98S
WARROAD        SUNNY     57  32  38 E8        29.99F
ROSEAU         SUNNY     66  21  18 SW3       29.98S
HALLOCK        SUNNY     68  19  15 CALM      29.97S
THF RVR FALLS  SUNNY     66  27  22 CALM      29.99F
HALSTAD        NOT AVBL
FOSSTON        SUNNY     68  21  17 N10       30.00S
BAUDETTE       SUNNY     61  15  16 NW10      30.00F
WASKISH        SUNNY     63  21  20 NW8       29.99S
CROOKSTON      SUNNY     68  30  24 CALM      29.99F
$$
  *****  WEATHER ACROSS CENTRAL AND WEST MINNESOTA  *****

CITY           SKY/WX    TMP DP  RH WIND       PRES   REMARKS
BEMIDJI        SUNNY     62  21  20 N8        29.99S
PARK RAPIDS    SUNNY     66  24  20 N8        29.97F
WADENA         SUNNY     64  28  25 N9        29.97S
DETROIT LAKES  SUNNY     66  28  24 N9G16     30.00S
MOORHEAD       SUNNY     70  25  18 N10       30.00S
FERGUS FALLS   SUNNY     66  34  30 N10G17    29.96F
ELBOW LAKE     FAIR      65  32  28 NW12G18   29.99S
MORRIS MN      SUNNY     70  32  24 N13       29.98S
STAPLES        SUNNY     64  18  16 N10G18    29.97S
WHEATON        SUNNY     70  34  26 NW9G18    30.01F
$$
  *****  WEATHER ELSEWHERE ACROSS MINNESOTA  *****

CITY           SKY/WX    TMP DP  RH WIND       PRES   REMARKS
DULUTH         SUNNY     56  29  35 SE12      29.95R
INTRNTL FALLS  SUNNY     60  19  20 VRB5      29.98F
ELY            SUNNY     57  16  19 N6        29.96S
CLOQUET        SUNNY     63   9  12 CALM      29.95R
BRAINERD       SUNNY     63  20  19 N14       29.97F
HIBBING        SUNNY     61  17  18 N12       29.95S
ALEXANDRIA     SUNNY     66  27  23 N13       29.99F
SAINT CLOUD    SUNNY     66  21  18 N14G21    29.95F
MINNEAPOLIS    SUNNY     66  27  23 NW14      29.94S
$$

  *****  WEATHER ACROSS SOUTH DAKOTA  *****

CITY           SKY/WX    TMP DP  RH WIND       PRES   REMARKS
SIOUX FALLS    MOSUNNY   68  36  30 N17       30.00F
BROOKINGS      SUNNY     68  34  28 N13       30.01S
WATERTOWN      SUNNY     68  29  23 NW16G22   30.02F
HURON          SUNNY     71  34  25 N7        30.03F
SISSETON         N/A     71  27  19 N10       30.00F
ABERDEEN       SUNNY     73  31  21 N5        30.02F
MITCHELL       SUNNY     69  34  27 NW13      30.05F
PIERRE         SUNNY     73  36  25 VRB3      30.04F
MOBRIDGE       SUNNY     76  42  29 SE8       30.01F
RAPID CITY     SUNNY     76  43  30 S14       30.06F
$$

  *****  SOME WEATHER IN NEARBY STATES *****

CITY           SKY/WX    TMP DP  RH WIND       PRES   REMARKS
GLASGOW MT     SUNNY     85  39  19 S13       29.86F
GREAT FALLS MT SUNNY     80  30  16 W18G26    29.91F
CHEYENNE WY    SUNNY     71  26  18 W8        30.18F
SCOTTSBLUFF NE SUNNY     76  38  25 SE6       30.10F
OMAHA NE       MOSUNNY   69  38  32 N17       30.00F
DES MOINES IA  MOSUNNY   68  30  24 N17G23    29.95S
DAVENPORT IA   MOSUNNY   63  33  32 N20G30    29.86S
CHICAGO IL     CLOUDY    50  38  63 NE7       29.80S
EAU CLAIRE WI  SUNNY     63  20  19 N13G22    29.90R
LA CROSSE WI   SUNNY     65  28  24 NW21      29.87S
$$

  *****  SOME NATIONAL WEATHER *****

CITY           SKY/WX    TMP DP  RH WIND       PRES   REMARKS
LA GUARDIA NY  DRIZZLE   51  49  92 E13       29.72F
RALEIGH NC     MOSUNNY   72  50  45 SW6       29.62R
ATLANTA GA     MOSUNNY   70  43  37 W13G20    29.71F
NEW ORLEANS LA MOSUNNY   77  51  40 NW17      29.87F
OKLAHOMA CITY  MOSUNNY   80  46  30 N20       30.00S
ALBUQUERQUE NM MOSUNNY   77  20  12 SW10      30.20F
SALT LAKE CITY PTSUNNY   81  27  14 SE10      30.01F
LOS ANGELES CA PTSUNNY   64  53  67 W15       29.93F
BOISE ID       CLOUDY    84  33  16 S13G22    29.86F
SEATTLE WA     CLOUDY    56  47  71 N8        30.04F
$$

*** WEATHER ACROSS MANITOBA...SASKATCHEWAN AND ONTARIO ***
                ***ONTARIO***

CITY           SKY/WX    TMP DP  RH WIND       PRES   REMARKS
GERALDTON      CLOUDY    39  32  75 N10       29.98R
THUNDER BAY    MOSUNNY   55  32  41 E13       29.94R
SIOUX LOOKOUT  MOSUNNY   55  16  21 NW8       29.97F
TORONTO        CLOUDY    59  37  44 E9G17     29.69R
BIG TROUT LK   PTSUNNY   46  12  25 SE5       29.92F
PICKLE LAKE    MOSUNNY   54  10  17 W7        29.94F
DRYDEN         SUNNY     57  12  17 VRB7      29.97F
KENORA         MOSUNNY   61  18  18 NW6       29.98F
$$
                *** MANITOBA***

CITY           SKY/WX    TMP DP  RH WIND       PRES   REMARKS
BRANDON        PTSUNNY   82  41  23 SW12G21   29.87F
DAUPHIN        SUNNY     84  41  21 SW15G21   29.79F
ISLAND LAKE    LGT RAIN  55  25  30 S14       29.78F
PILOT MOUND      N/A     77  32  19 S14G22      N/A
THE PAS        PTSUNNY   77  46  33 SE15      29.66F
THOMPSON       PTSUNNY   66  37  34 S10G17    29.66F
WINNIPEG       PTSUNNY   70  30  23 SW9G17    29.94F
LYNN LAKE      MOSUNNY   79  41  25 VRB6      29.60F
CHURCHILL      MOSUNNY   48  32  53 S14       29.63F
GILLAM         MOSUNNY   61  32  33 SW18G30   29.68F
$$
                ***SASKATCHEWAN***

CITY           SKY/WX    TMP DP  RH WIND       PRES   REMARKS
ESTEVAN        PTSUNNY   86  37  17 SW17G26   29.88F
KINDERSLEY     MOSUNNY   88  30  12 W22G35    29.77F
LLOYDMINSTER   MOSUNNY   82  32  16 W14G26    29.72S
PRINCE ALBERT  SUNNY     90  36  14 SW14G20   29.64F
REGINA         MOSUNNY   88  34  14 SW14G21   29.80F
YORKTON        SUNNY     88  32  13 SW22G28   29.77F   C1F1C2F2C3F3C4F4C5F5C6F6C7F7C8F8C9F9CaFaCbFbCcFcCdFdCe!



USA.gov is the U.S. government's official web portal to all federal, state and local government web resources and services.